Weather History for Rionegro, Colombia

Change the Weather History Date:

Sunday, March 17, 2013

  Actual Average Record
Temperature  
Mean Temperature 64 °F -  
Max Temperature 73 °F 69 °F 75 °F (1998)
Min Temperature 56 °F 54 °F 53 °F (2011)
Growing Degree Days 14 (Base 50)    
Moisture  
Dew Point 58 °F    
Average Humidity 88    
Maximum Humidity 100    
Minimum Humidity 53    
Precipitation  
Precipitation 0.55 in - - ()
Sea Level Pressure  
Sea Level Pressure 30.27 in    
Wind  
Wind Speed 2 mph ()    
Max Wind Speed 12 mph    
Max Gust Speed -    
Visibility 4.8 miles    
Events Fog , Rain , Thunderstorm    
Averages and records for this station are not official NWS values.
T = Trace of Precipitation, MM = Missing Value Source: Averaged Metar Reports

Daily Weather History Graph

Daily Weather History Graph

Search for Another Location

Airport:

Trip Planner

Search our weather history database for the weather conditions in past years. The results will help you decide how hot, cold, wet, or windy it might be!

Date:

Astronomy

Mar. 17, 2013 Rise Set
Actual Time 6:07 AM COT 6:12 PM COT
Civil Twilight 5:46 AM COT 6:33 PM COT
Nautical Twilight 5:22 AM COT 6:57 PM COT
Astronomical Twilight 4:58 AM COT 7:21 PM COT
Moon 10:23 AM COT (3/17) 11:04 PM COT (3/17)
Length of Visible Light 12h 47m
Length of Day
12h 05m
Waxing Crescent, 31% of the Moon is Illuminated
Mar 17
Waxing Crescent
Mar 19
First Quarter
Mar 27
Full
Apr 2
Last Quarter
Apr 10
New

Hourly Weather History & Observations

Time (COT) Temp. Dew Point Humidity Pressure Visibility Wind Dir Wind Speed Gust Speed Precip Events Conditions
12:00 AM 60.8 °F 59.0 °F 94% 30.29 in 5.0 mi Calm Calm - N/A Fog Fog
1:00 AM 59 °F 58 °F 93%  in 4 mi Calm Calm - - Fog Light Fog
1:00 AM 59.0 °F 57.2 °F 94% 30.28 in 4.3 mi Calm Calm - N/A Fog Fog
2:00 AM 59.0 °F 57.2 °F 94% 30.26 in 4.3 mi Variable 2.3 mph - N/A Fog Fog
3:00 AM 59.0 °F 57.2 °F 94% 30.24 in 3.7 mi Calm Calm - N/A Fog Fog
4:00 AM 59 °F 58 °F 94%  in 2 mi Calm Calm - - Fog Patches of Fog
4:00 AM 59.0 °F 57.2 °F 94% 30.26 in 2.5 mi Calm Calm - N/A Fog Patches of Fog
5:00 AM 59.0 °F 59.0 °F 100% 30.27 in 3.1 mi Calm Calm - N/A Fog Patches of Fog
5:30 AM 59.0 °F 59.0 °F 100% 30.27 in 5.0 mi Calm Calm - N/A Fog Patches of Fog
6:00 AM 59.0 °F 59.0 °F 100% 30.28 in 3.7 mi Calm Calm - N/A Fog Fog
7:00 AM 59 °F 58 °F 97%  in 2 mi Calm Calm - - Rain Light Drizzle
7:00 AM 59.0 °F 59.0 °F 100% 30.28 in 1.9 mi Calm Calm - N/A   Light Drizzle
8:00 AM 60.8 °F 59.0 °F 94% 30.30 in 2.5 mi Calm Calm - N/A   Haze
9:00 AM 60.8 °F 59.0 °F 94% 30.33 in 2.5 mi East 4.6 mph - N/A   Haze
10:00 AM 61 °F 59 °F 92%  in 5 mi South 6.7 mph - - Rain Light Drizzle
10:00 AM 60.8 °F 59.0 °F 94% 30.33 in 5.0 mi South 5.8 mph - N/A   Light Drizzle
11:00 AM 62.6 °F 59.0 °F 88% 30.32 in 6.2 mi North 8.1 mph - N/A   Light Drizzle
12:00 PM 62.6 °F 57.2 °F 82% 30.30 in 6.2 mi North 5.8 mph - N/A   Mostly Cloudy
1:00 PM 67 °F 56 °F 60%  in 12 mi NE 4.5 mph - -   Haze
1:00 PM 68.0 °F 57.2 °F 68% 30.27 in 6.2 mi NE 4.6 mph - N/A   Mostly Cloudy
2:00 PM 69.8 °F 55.4 °F 60% 30.24 in 6.2 mi East 4.6 mph - N/A   Mostly Cloudy
3:00 PM 73.4 °F 55.4 °F 53% 30.20 in 6.2 mi ENE 9.2 mph - N/A   Scattered Clouds
4:00 PM 70 °F 58 °F 58%  in 12 mi ESE 11.2 mph - -   Haze
4:00 PM 69.8 °F 59.0 °F 68% 30.18 in 6.2 mi ESE 11.5 mph - N/A   Scattered Clouds
5:00 PM 64.4 °F 60.8 °F 88% 30.20 in 6.2 mi Variable 2.3 mph - N/A   Scattered Clouds
6:00 PM 64.4 °F 60.8 °F 88% 30.21 in 6.2 mi South 4.6 mph - N/A Rain , Thunderstorm Light Thunderstorms and Rain
7:00 PM 60 °F 59 °F 94%  in 3 mi NE 8.9 mph - - Rain , Thunderstorm Heavy Thunderstorms and Rain
7:00 PM 60.8 °F 59.0 °F 94% 30.23 in 3.1 mi NE 8.1 mph - N/A Rain , Thunderstorm Thunderstorms and Rain
8:00 PM 57.2 °F 57.2 °F 100% 30.29 in 2.5 mi West 5.8 mph - N/A Rain , Thunderstorm Thunderstorms and Rain
9:00 PM 57.2 °F 55.4 °F 94% 30.28 in 4.3 mi ESE 9.2 mph - N/A Rain , Thunderstorm Light Thunderstorms and Rain
10:00 PM 58 °F 56 °F 90%  in 5 mi WNW 6.7 mph - - Thunderstorm Light Thunderstorm
10:00 PM 57.2 °F 55.4 °F 94% 30.32 in 5.0 mi WNW 5.8 mph - N/A   Overcast
11:00 PM 57.2 °F 55.4 °F 94% 30.31 in 5.0 mi Calm Calm - N/A   Overcast